RH
77 76 75 75 74 74 74 75 76 76 76 78 79 79 79 84 79 33 25 27 35 53 48 32 34 39 39 44 46 46 46 38 40 40 32 29 35 28 28 31 26 26 29 32 24
78 78 76 74 74 74 75 75 76 77 77 78 79 79 80 87 48 29 36 39 42 51 34 34 35 37 35 42 45 47 47 40 34 33 37 33 34 33 35 34 31 28 26 26 44
78 78 76 75 75 76 76 76 77 78 78 78 78 80 84 73 29 19 38 40 44 51 37 38 39 41 39 41 42 48 43 34 35 33 36 39 38 34 40 41 34 32 25 31 51
80 79 78 78 77 78 78 78 78 78 79 79 79 80 85 47 18 17 41 40 41 35 33 34 36 39 40 37 41 49 37 40 42 39 43 43 37 39 39 39 29 29 32 32 34
76 76 76 77 77 78 78 79 78 78 79 80 80 82 56 22 16 19 49 30 28 32 32 34 36 42 39 38 42 51 38 38 37 40 41 38 41 44 43 34 31 31 34 36 38
76 77 78 77 78 78 80 79 79 78 80 80 81 83 36 20 16 21 25 25 26 30 33 34 34 37 44 43 48 40 42 39 37 36 32 43 37 50 37 34 35 36 41 46 55
76 78 78 77 76 77 80 81 80 81 83 81 80 52 35 19 21 24 25 26 28 30 32 33 36 42 41 35 43 40 43 29 31 30 34 41 34 47 29 36 40 49 63 60 66
77 77 77 79 80 81 83 82 83 84 84 82 78 46 25 24 23 22 24 29 29 31 34 36 42 45 46 32 31 32 34 35 27 33 35 38 38 28 27 32 42 66 73 77 88
77 76 78 79 83 85 85 80 77 81 78 77 49 34 18 30 19 23 27 29 31 37 40 35 42 38 32 34 24 28 44 38 37 32 36 38 39 33 44 49 59 74 64 70 80
78 80 81 83 84 87 79 68 72 65 56 46 34 28 16 20 26 28 28 30 32 34 34 36 36 30 19 26 25 33 38 37 41 36 37 35 48 55 60 63 80 76 81 79 91
80 82 83 84 84 81 54 33 24 24 30 31 28 27 24 27 30 26 30 29 27 25 28 39 35 33 30 32 34 41 40 39 34 37 34 42 47 58 83 70 78 82 87 85 88
82 82 82 85 84 73 44 43 58 58 43 39 40 37 33 32 26 24 26 26 26 27 33 26 25 34 37 37 35 37 32 36 37 39 27 29 34 34 36 40 60 83 91 95 94
83 82 83 85 77 54 51 61 58 56 49 32 35 35 27 29 27 26 29 33 30 26 36 22 25 34 36 24 30 32 34 38 49 42 33 28 31 31 27 25 40 69 88 93 96
83 82 84 84 51 50 56 62 60 56 32 20 24 25 25 31 23 29 34 33 29 28 32 20 26 34 30 21 36 24 36 45 47 31 33 26 34 29 27 31 31 49 78 77 98
84 82 84 73 47 48 61 62 61 54 85 19 22 24 24 26 31 27 34 30 30 27 26 23 26 34 21 24 37 30 42 44 43 33 29 33 36 30 29 36 34 31 37 44 55
84 84 81 56 51 63 65 65 56 45 97 30 25 25 19 25 25 25 25 25 30 22 24 25 28 35 23 33 35 38 36 32 35 37 51 41 42 34 39 42 39 33 33 36 42
84 82 69 56 52 64 63 42 58 47 18 23 27 25 26 29 22 24 26 28 28 47 34 22 19 20 34 29 31 34 30 40 39 54 46 37 41 41 35 40 42 41 40 41 42
84 74 72 61 63 66 44 23 51 20 20 29 26 21 26 26 23 22 20 28 29 24 29 32 40 22 26 38 44 41 36 44 30 35 34 31 42 47 37 40 40 41 44 45 45
74 61 61 67 64 53 28 43 29 19 30 32 22 17 19 22 21 19 22 30 33 28 25 23 24 23 30 36 42 33 39 43 39 41 34 36 35 33 36 45 46 48 48 49 45
51 42 42 72 63 43 26 42 24 26 34 30 20 22 20 20 20 21 19 31 36 31 28 27 30 25 25 26 30 30 34 30 35 38 36 29 34 44 53 58 53 51 48 45 43
48 37 42 66 46 32 40 30 27 31 34 30 24 23 22 23 27 23 19 30 33 33 29 31 30 24 26 22 24 29 26 29 33 38 30 28 33 45 61 60 55 48 43 39 37
47 53 51 56 36 46 30 32 52 35 37 34 34 29 26 28 27 24 22 21 31 30 26 32 30 33 23 24 25 35 27 24 34 30 30 30 38 48 53 56 55 50 47 39 35
43 40 54 47 43 31 29 34 41 34 33 35 35 35 32 32 26 25 24 31 30 24 22 28 28 36 31 27 31 34 30 29 30 34 35 34 38 53 52 51 45 53 46 39 34
43 57 49 50 44 27 29 30 28 41 38 37 34 33 35 34 32 30 31 32 34 28 56 39 30 27 38 32 23 26 28 31 31 47 34 30 44 63 60 56 45 50 45 38 35
47 58 48 53 42 41 35 39 38 37 41 36 35 36 31 29 32 31 31 28 27 47 46 38 37 45 32 30 32 35 37 36 45 37 39 32 34 61 59 51 44 48 45 40 39
48 48 58 45 51 47 50 44 46 39 33 38 41 33 35 31 27 28 28 30 27 33 42 48 44 48 54 43 43 45 39 40 39 38 36 35 59 58 53 39 44 50 46 44 42
67 59 50 60 50 44 39 38 40 40 36 33 39 36 36 34 30 28 28 27 27 34 40 45 47 51 63 45 46 46 47 48 60 64 58 51 52 53 48 43 49 54 48 45 45
Wind_Speed
11 10 10 11 11 11 11 11 11 11 12 12 12 13 13 13 10 2 1 2 2 6 3 5 1 3 2 3 1 1 3 5 4 5 6 8 11 11 10 16 15 15 16 14 15
10 11 12 12 12 12 12 12 12 11 11 11 12 12 12 10 2 2 1 3 3 3 6 7 8 4 2 1 1 4 4 4 6 10 13 16 16 16 15 16 17 16 15 14 8
12 13 13 13 13 13 13 12 13 13 12 11 11 11 10 5 2 1 2 3 3 2 1 2 3 3 1 1 1 1 6 6 12 11 14 19 19 17 17 20 16 13 12 6 8
14 15 15 15 15 14 14 14 13 11 12 11 10 10 10 3 3 2 3 1 2 2 2 2 4 5 4 5 1 7 9 10 9 14 13 18 15 17 17 23 16 18 16 15 13
14 15 15 15 17 16 16 15 14 14 12 10 9 7 3 4 2 4 3 2 3 3 2 3 3 3 6 6 8 7 9 10 14 18 14 12 15 15 18 19 18 17 18 19 15
14 15 15 16 16 16 17 16 16 14 12 8 7 6 2 4 3 2 1 0 1 2 2 3 3 3 5 6 6 7 15 19 11 9 9 9 12 4 10 9 10 13 14 15 11
14 15 16 17 17 18 17 17 17 14 10 6 3 3 2 3 2 3 2 2 1 1 2 1 1 3 5 8 4 10 10 13 2 9 7 9 8 7 10 7 13 12 5 4 4
16 17 17 18 18 19 17 17 14 6 1 4 5 3 3 1 2 1 3 3 3 3 1 1 1 2 4 8 4 7 5 9 11 10 3 7 9 9 12 11 15 3 4 7 6
16 17 18 19 20 19 16 12 2 4 7 6 3 3 2 1 1 3 3 3 2 4 4 4 1 2 3 9 5 4 8 14 9 7 11 6 13 19 17 18 11 0 9 9 13
18 18 18 19 20 20 16 1 3 4 3 2 1 3 1 3 3 3 2 2 1 3 2 1 1 3 7 9 10 12 9 11 9 10 12 13 16 16 27 22 13 8 6 7 6
17 19 19 19 19 16 8 1 3 3 6 4 4 4 2 6 1 1 2 1 1 2 4 2 3 7 12 7 8 7 8 10 6 7 7 15 16 16 6 11 15 13 11 1 9
16 18 21 19 16 12 5 7 3 1 7 1 4 5 4 1 1 2 3 1 2 3 4 2 5 6 9 4 9 2 11 9 2 6 5 19 21 19 18 18 13 12 13 6 6
16 18 22 21 9 5 8 5 1 4 4 3 2 3 2 3 1 3 5 1 3 2 6 3 3 8 4 5 13 1 10 8 4 7 1 1 20 19 16 23 24 24 18 13 6
15 16 19 23 1 2 4 3 3 3 3 3 2 2 1 2 1 1 2 3 1 5 2 2 3 5 7 7 8 7 9 6 6 2 6 10 6 18 18 19 22 18 22 22 12
13 16 15 12 3 3 5 5 1 4 1 4 2 1 3 3 5 3 2 0 2 4 4 4 5 6 10 8 5 6 6 4 4 5 2 14 4 14 18 20 21 19 16 18 19
12 15 12 2 1 2 5 3 2 2 2 3 2 5 4 4 4 6 2 3 1 2 1 2 1 2 6 8 2 8 3 2 1 2 5 9 3 10 12 17 19 19 19 20 20
11 11 4 2 4 7 4 2 2 1 1 5 4 5 2 5 3 7 4 6 5 3 7 4 1 2 2 6 1 13 2 3 2 2 3 4 4 6 12 15 14 16 18 20 20
12 5 3 2 4 5 3 2 1 1 2 1 2 2 2 6 3 6 1 3 5 2 1 4 2 6 7 3 4 5 5 3 1 1 3 2 3 5 9 14 13 15 17 19 21
9 1 1 3 5 2 3 2 2 1 1 6 5 1 1 1 3 4 4 3 3 4 4 4 3 1 2 2 3 4 5 3 2 1 3 2 3 6 8 14 16 18 20 21 21
3 3 1 5 4 1 2 3 2 2 1 1 3 2 2 3 3 2 1 1 1 1 3 2 4 1 3 2 2 4 2 2 1 2 2 4 4 2 9 12 14 17 18 19 19
1 3 2 4 2 0 2 3 3 3 3 2 2 3 3 2 1 2 1 1 1 2 0 1 2 1 3 3 3 1 3 4 2 4 2 2 3 4 5 6 8 11 14 16 17
0 2 2 3 1 1 2 3 1 3 2 3 2 3 3 2 2 2 3 1 2 2 1 0 1 4 3 2 3 1 1 1 3 2 2 5 3 4 5 5 8 10 12 13 15
1 3 1 4 2 3 1 3 3 2 3 2 2 4 1 3 4 3 2 1 2 1 0 4 2 5 4 4 4 4 2 2 3 0 7 5 4 5 3 4 8 8 11 12 14
1 2 1 1 2 3 3 3 3 3 3 3 2 1 2 3 3 2 2 1 1 1 4 4 4 7 7 9 3 8 5 5 6 5 3 9 5 10 1 4 8 8 10 12 14
1 4 3 2 4 4 1 1 3 3 3 3 3 7 5 3 2 4 2 2 2 2 2 3 6 5 11 13 12 13 14 11 12 14 9 1 5 6 2 7 8 8 10 12 14
4 3 0 1 1 5 4 5 6 3 5 4 6 4 6 5 4 4 2 3 5 2 2 1 3 2 7 10 6 9 10 9 10 11 15 11 3 3 2 4 6 7 10 12 14
1 2 3 2 4 4 5 6 6 4 4 2 4 4 6 8 4 5 6 6 5 3 3 3 3 3 5 1 10 11 1 3 5 2 3 7 4 2 0 6 6 5 9 11 12
Wind_Direction
0 353 349 347 345 341 338 335 332 331 329 330 330 333 336 336 309 219 337 33 264 309 325 337 308 68 149 105 18 246 258 304 291 283 303 265 268 273 273 273 267 270 274 292 295
351 349 354 345 341 337 333 328 322 319 319 323 325 327 329 334 296 279 59 225 258 323 313 348 4 2 111 84 170 266 278 314 298 284 285 292 282 280 279 271 264 262 263 257 265
355 352 348 346 337 331 326 322 317 315 314 314 318 324 325 308 247 358 160 225 276 154 316 306 337 335 8 303 83 229 279 322 296 299 294 289 282 278 260 263 264 271 272 253 230
357 354 348 338 329 325 320 316 311 306 306 306 310 321 324 245 12 144 191 46 329 182 185 297 317 340 317 316 281 272 266 284 287 302 300 294 297 274 264 258 264 270 281 277 258
0 354 348 337 329 325 318 313 309 305 301 299 300 320 280 235 236 138 145 350 141 153 255 297 313 331 324 311 302 249 302 303 290 293 288 294 286 275 268 261 267 277 267 265 246
359 350 345 336 328 323 317 316 307 305 293 281 289 300 232 259 82 119 349 28 153 206 215 254 315 319 287 295 282 330 301 294 301 296 299 294 299 300 277 288 270 267 267 262 238
356 347 342 333 327 324 321 313 307 304 281 259 244 237 202 278 55 357 8 14 35 230 281 242 250 267 328 304 327 295 301 319 58 342 319 316 281 250 314 316 309 272 275 258 245
353 344 341 333 327 324 320 314 309 314 158 182 171 202 250 77 348 107 339 101 39 78 61 56 177 297 289 305 278 302 249 348 352 348 14 325 319 19 347 325 315 104 120 64 37
349 343 339 335 328 325 325 323 345 82 102 137 176 249 131 97 331 4 352 357 117 92 85 98 296 334 305 342 328 23 326 337 333 22 331 344 328 356 4 3 13 237 55 9 12
348 340 336 335 333 326 335 356 96 131 101 157 154 230 63 359 320 346 18 12 124 138 150 76 358 289 357 2 357 328 330 333 331 358 350 9 28 35 13 357 28 343 72 85 60
344 338 335 336 336 332 344 193 309 161 41 351 319 277 327 320 240 94 7 200 174 87 352 41 45 7 339 334 307 306 305 316 2 8 3 54 48 35 10 355 15 13 351 40 294
343 341 335 338 335 343 22 63 68 336 310 285 274 271 245 265 274 66 325 310 28 21 323 167 35 342 315 292 329 310 335 16 104 5 58 69 57 39 36 22 23 358 351 335 240
345 343 338 337 317 36 64 63 287 194 264 301 287 301 352 307 26 359 352 94 47 334 19 46 18 319 334 345 350 86 5 334 308 319 204 359 53 27 25 35 30 13 353 340 127
343 343 345 334 318 350 63 348 293 224 290 40 39 61 279 357 118 334 22 337 120 355 21 14 355 346 341 14 341 344 350 301 300 269 53 342 78 22 8 29 36 24 357 355 25
339 343 351 20 321 29 343 323 227 240 8 14 5 11 329 5 325 40 25 287 10 12 320 14 347 357 356 351 335 328 336 326 332 67 115 21 54 11 11 9 9 14 18 9 19
341 342 340 34 11 37 322 304 224 242 266 19 328 358 340 29 13 315 28 62 32 118 112 355 342 314 325 310 258 321 223 237 239 313 51 7 351 37 22 354 352 5 24 21 23
335 339 22 314 352 331 312 233 328 190 15 359 347 359 351 337 15 11 26 38 20 16 16 333 29 339 341 323 344 5 37 204 173 52 50 357 34 32 1 14 6 5 21 31 33
329 342 41 42 330 330 287 271 272 61 345 22 320 299 33 359 55 357 42 70 61 19 83 354 333 4 349 28 317 359 358 2 99 137 61 354 114 58 26 25 30 33 35 36 35
321 5 26 9 347 341 293 306 290 194 311 332 298 283 51 63 332 346 28 45 18 353 13 340 316 295 317 344 328 10 26 335 81 94 238 99 118 193 41 37 30 32 30 30 28
343 326 346 328 340 355 288 268 267 237 234 207 292 346 304 338 309 22 17 38 112 16 297 114 287 82 322 266 86 32 71 293 355 215 175 158 207 185 13 17 22 26 25 22 21
24 298 94 315 218 11 246 248 284 258 223 213 268 275 267 282 281 302 120 132 180 135 60 174 233 177 244 25 341 110 54 58 297 304 292 231 143 44 63 32 32 30 26 24 18
337 276 5 292 30 19 237 205 316 265 219 233 248 252 249 258 252 251 229 236 176 160 281 134 293 280 308 358 258 287 350 21 317 351 314 314 100 89 79 43 14 19 15 15 16
214 288 6 268 236 215 239 259 236 219 232 213 242 230 165 252 274 239 251 155 129 163 280 176 207 294 171 180 165 225 184 99 104 275 246 282 106 132 95 49 26 11 8 8 7
153 310 330 334 78 242 207 227 250 204 254 201 240 186 175 244 228 290 251 198 302 352 43 205 230 245 267 304 329 264 210 222 246 246 243 238 161 185 118 12 11 13 5 3 4
183 227 265 169 221 196 187 254 203 234 217 211 202 226 190 239 241 236 239 294 174 8 107 236 255 221 261 275 268 264 267 252 226 232 238 80 243 135 36 1 1 359 1 2 2
172 169 275 92 152 169 185 213 219 232 197 220 221 184 191 225 230 280 205 206 265 131 157 195 268 262 268 261 260 265 260 246 239 245 251 251 182 136 144 346 7 9 359 358 358
104 88 111 134 210 170 210 208 210 186 212 254 217 171 211 237 235 271 246 262 279 237 219 248 246 233 267 239 302 267 219 166 127 129 278 222 74 43 132 1 10 11 3 357 354